Time,TemperatureF,DewpointF,PressureIn,WindDirection,WindDirectionDegrees,WindSpeedMPH,WindSpeedGustMPH,Humidity,HourlyPrecipIn,Conditions,Clouds,dailyrainin,SoftwareType,DateUTC
2013-09-27 00:12:00,69.0,65.0,29.96,ESE,118,0.0,0.0,88,0.00,,,0.00,,2013-09-27 05:12:00,
2013-09-27 00:23:00,69.0,66.0,29.96,ESE,118,0.0,0.0,89,0.00,,,0.00,,2013-09-27 05:23:00,
2013-09-27 00:52:00,68.0,65.0,29.96,ESE,118,0.0,0.0,90,0.00,,,0.00,,2013-09-27 05:52:00,
2013-09-27 01:11:00,68.0,65.0,29.96,ESE,118,0.0,0.0,91,0.00,,,0.00,,2013-09-27 06:11:00,
2013-09-27 01:22:00,67.0,64.0,29.96,ESE,118,0.0,0.0,91,0.00,,,0.00,,2013-09-27 06:22:00,
2013-09-27 01:43:00,67.0,65.0,29.96,ESE,118,0.0,0.0,92,0.00,,,0.00,,2013-09-27 06:43:00,
2013-09-27 01:52:00,67.0,65.0,29.97,ESE,118,0.0,0.0,92,0.00,,,0.00,,2013-09-27 06:52:00,
2013-09-27 02:12:00,67.0,65.0,29.97,ESE,118,0.0,0.0,92,0.00,,,0.00,,2013-09-27 07:12:00,
2013-09-27 02:22:00,66.0,64.0,29.97,ESE,118,0.0,0.0,93,0.00,,,0.00,,2013-09-27 07:22:00,
2013-09-27 02:43:00,66.0,64.0,29.97,ESE,118,0.0,0.0,93,0.00,,,0.00,,2013-09-27 07:43:00,
2013-09-27 02:53:00,66.0,64.0,29.97,ESE,118,0.0,0.0,93,0.00,,,0.00,,2013-09-27 07:53:00,
2013-09-27 03:11:00,65.0,63.0,29.96,ESE,118,0.0,0.0,93,0.00,,,0.00,,2013-09-27 08:11:00,
2013-09-27 03:22:00,65.0,63.0,29.97,ESE,118,0.0,0.0,93,0.00,,,0.00,,2013-09-27 08:22:00,
2013-09-27 03:42:00,65.0,63.0,29.97,ESE,118,0.0,0.0,94,0.00,,,0.00,,2013-09-27 08:42:00,
2013-09-27 03:52:00,65.0,63.0,29.97,ESE,118,0.0,0.0,94,0.00,,,0.00,,2013-09-27 08:52:00,
2013-09-27 04:12:00,65.0,63.0,29.97,ESE,118,0.0,0.0,94,0.00,,,0.00,,2013-09-27 09:12:00,
2013-09-27 04:22:00,64.0,62.0,29.98,ESE,118,0.0,0.0,94,0.00,,,0.00,,2013-09-27 09:22:00,
2013-09-27 04:44:00,64.0,62.0,29.98,ESE,118,0.0,0.0,94,0.00,,,0.00,,2013-09-27 09:44:00,
2013-09-27 04:53:00,64.0,62.0,29.98,ESE,118,0.0,0.0,94,0.00,,,0.00,,2013-09-27 09:53:00,
2013-09-27 05:13:00,64.0,63.0,29.98,ESE,118,0.0,0.0,95,0.00,,,0.00,,2013-09-27 10:13:00,
2013-09-27 05:23:00,64.0,62.0,29.98,ESE,118,0.0,0.0,94,0.00,,,0.00,,2013-09-27 10:23:00,
2013-09-27 05:42:00,64.0,63.0,29.99,ESE,118,0.0,0.0,95,0.00,,,0.00,,2013-09-27 10:42:00,
2013-09-27 05:52:00,63.0,62.0,29.99,ESE,118,0.0,0.0,95,0.00,,,0.00,,2013-09-27 10:52:00,
2013-09-27 06:12:00,63.0,62.0,30.00,ESE,118,0.0,0.0,95,0.00,,,0.00,,2013-09-27 11:12:00,
2013-09-27 06:22:00,63.0,62.0,30.01,ESE,118,0.0,0.0,95,0.00,,,0.00,,2013-09-27 11:22:00,
2013-09-27 06:43:00,63.0,62.0,30.01,ESE,118,0.0,0.0,95,0.00,,,0.00,,2013-09-27 11:43:00,
2013-09-27 06:52:00,63.0,62.0,30.01,ESE,118,0.0,0.0,95,0.00,,,0.00,,2013-09-27 11:52:00,
2013-09-27 07:12:00,63.0,62.0,30.02,ESE,118,0.0,0.0,95,0.00,,,0.00,,2013-09-27 12:12:00,
2013-09-27 07:21:00,63.0,62.0,30.03,ESE,118,0.0,0.0,95,0.00,,,0.00,,2013-09-27 12:21:00,
2013-09-27 07:42:00,63.0,62.0,30.03,NNE,13,0.0,0.0,96,0.00,,,0.00,,2013-09-27 12:42:00,
2013-09-27 07:52:00,64.0,63.0,30.03,NE,47,0.0,0.0,96,0.00,,,0.00,,2013-09-27 12:52:00,
2013-09-27 08:11:00,65.0,64.0,30.04,ENE,57,0.0,0.0,96,0.00,,,0.00,,2013-09-27 13:11:00,
2013-09-27 08:22:00,66.0,65.0,30.04,SE,124,0.0,0.0,96,0.00,,,0.00,,2013-09-27 13:22:00,
2013-09-27 08:53:00,69.0,67.0,30.04,SE,140,0.0,0.0,93,0.00,,,0.00,,2013-09-27 13:53:00,
2013-09-27 09:11:00,70.0,66.0,30.04,ESE,123,0.0,0.0,88,0.00,,,0.00,,2013-09-27 14:11:00,
2013-09-27 09:22:00,73.0,68.0,30.05,ESE,119,0.0,0.0,84,0.00,,,0.00,,2013-09-27 14:22:00,
2013-09-27 09:52:00,76.0,69.0,30.05,East,101,0.0,0.0,78,0.00,,,0.00,,2013-09-27 14:52:00,
2013-09-27 10:11:00,78.0,69.0,30.05,SE,145,0.0,0.0,75,0.00,,,0.00,,2013-09-27 15:11:00,
2013-09-27 10:21:00,79.0,69.0,30.05,SSE,167,0.0,5.0,72,0.00,,,0.00,,2013-09-27 15:21:00,
2013-09-27 10:54:00,81.0,68.0,30.05,South,179,1.0,4.0,65,0.00,,,0.00,,2013-09-27 15:54:00,
2013-09-27 11:13:00,81.0,68.0,30.05,SSE,167,1.0,7.0,65,0.00,,,0.00,,2013-09-27 16:13:00,
2013-09-27 11:24:00,82.0,68.0,30.06,SE,144,6.0,7.0,63,0.00,,,0.00,,2013-09-27 16:24:00,
2013-09-27 11:53:00,83.0,68.0,30.05,South,178,0.0,6.0,60,0.00,,,0.00,,2013-09-27 16:53:00,
2013-09-27 12:13:00,84.0,67.0,30.04,ESE,104,1.0,5.0,57,0.00,,,0.00,,2013-09-27 17:13:00,
2013-09-27 12:23:00,83.0,67.0,30.04,ESE,109,1.0,5.0,58,0.00,,,0.00,,2013-09-27 17:23:00,
2013-09-27 12:43:00,84.0,67.0,30.03,SSW,199,2.0,3.0,56,0.00,,,0.00,,2013-09-27 17:43:00,
2013-09-27 12:52:00,85.0,68.0,30.02,ESE,110,0.0,6.0,56,0.00,,,0.00,,2013-09-27 17:52:00,
2013-09-27 13:13:00,86.0,67.0,30.02,SSE,161,0.0,4.0,53,0.00,,,0.00,,2013-09-27 18:13:00,
2013-09-27 13:21:00,87.0,67.0,30.01,ENE,57,0.0,1.0,52,0.00,,,0.00,,2013-09-27 18:21:00,
2013-09-27 13:43:00,87.0,65.0,30.01,South,178,2.0,7.0,49,0.00,,,0.00,,2013-09-27 18:43:00,
2013-09-27 13:52:00,87.0,65.0,30.00,ESE,117,0.0,3.0,49,0.00,,,0.00,,2013-09-27 18:52:00,
2013-09-27 14:12:00,88.0,65.0,30.00,West,270,2.0,3.0,47,0.00,,,0.00,,2013-09-27 19:12:00,
2013-09-27 14:22:00,89.0,67.0,29.99,ESE,117,0.0,6.0,48,0.00,,,0.00,,2013-09-27 19:22:00,
2013-09-27 14:42:00,86.0,63.0,29.98,South,191,0.0,2.0,47,0.00,,,0.00,,2013-09-27 19:42:00,
2013-09-27 14:53:00,88.0,65.0,29.98,East,96,0.0,5.0,47,0.00,,,0.00,,2013-09-27 19:53:00,
2013-09-27 15:12:00,87.0,65.0,29.97,ESE,117,1.0,5.0,49,0.00,,,0.00,,2013-09-27 20:12:00,
2013-09-27 15:22:00,87.0,66.0,29.97,North,10,0.0,5.0,50,0.00,,,0.00,,2013-09-27 20:22:00,
2013-09-27 15:43:00,88.0,65.0,29.96,East,82,0.0,0.0,47,0.00,,,0.00,,2013-09-27 20:43:00,
2013-09-27 15:52:00,87.0,64.0,29.96,ESE,106,3.0,5.0,46,0.00,,,0.00,,2013-09-27 20:52:00,
2013-09-27 16:12:00,87.0,65.0,29.96,SSE,163,0.0,8.0,49,0.00,,,0.00,,2013-09-27 21:12:00,
2013-09-27 16:21:00,87.0,64.0,29.96,ESE,112,0.0,8.0,47,0.00,,,0.00,,2013-09-27 21:21:00,
2013-09-27 16:44:00,87.0,65.0,29.96,NE,55,0.0,6.0,48,0.00,,,0.00,,2013-09-27 21:44:00,
2013-09-27 16:54:00,87.0,65.0,29.96,ESE,113,5.0,8.0,49,0.00,,,0.00,,2013-09-27 21:54:00,
2013-09-27 17:24:00,85.0,66.0,29.96,East,87,0.0,4.0,53,0.00,,,0.00,,2013-09-27 22:24:00,
2013-09-27 17:43:00,85.0,65.0,29.97,SSE,147,1.0,5.0,52,0.00,,,0.00,,2013-09-27 22:43:00,
2013-09-27 17:53:00,85.0,65.0,29.97,SSW,205,6.0,7.0,52,0.00,,,0.00,,2013-09-27 22:53:00,
2013-09-27 18:12:00,83.0,64.0,29.97,South,173,3.0,4.0,52,0.00,,,0.00,,2013-09-27 23:12:00,
2013-09-27 18:22:00,83.0,65.0,29.97,South,176,0.0,0.0,54,0.00,,,0.00,,2013-09-27 23:22:00,
2013-09-27 18:43:00,82.0,66.0,29.97,South,173,0.0,0.0,58,0.00,,,0.00,,2013-09-27 23:43:00,
2013-09-27 18:53:00,81.0,67.0,29.97,South,173,0.0,0.0,63,0.00,,,0.00,,2013-09-27 23:53:00,
2013-09-27 19:12:00,80.0,68.0,29.97,South,173,0.0,0.0,66,0.00,,,0.00,,2013-09-28 00:12:00,
2013-09-27 19:22:00,79.0,68.0,29.97,South,173,0.0,0.0,69,0.00,,,0.00,,2013-09-28 00:22:00,
2013-09-27 19:42:00,78.0,67.0,29.98,South,173,0.0,0.0,70,0.00,,,0.00,,2013-09-28 00:42:00,
2013-09-27 19:52:00,76.0,67.0,29.98,South,173,0.0,0.0,73,0.00,,,0.00,,2013-09-28 00:52:00,
2013-09-27 20:12:00,75.0,67.0,29.98,South,173,0.0,0.0,76,0.00,,,0.00,,2013-09-28 01:12:00,
2013-09-27 20:21:00,74.0,66.0,29.98,South,173,0.0,0.0,77,0.00,,,0.00,,2013-09-28 01:21:00,
2013-09-27 20:42:00,73.0,66.0,29.99,South,173,0.0,0.0,79,0.00,,,0.00,,2013-09-28 01:42:00,
2013-09-27 20:52:00,72.0,66.0,29.99,South,173,0.0,0.0,81,0.00,,,0.00,,2013-09-28 01:52:00,
2013-09-27 21:12:00,71.0,65.0,30.00,South,173,0.0,0.0,82,0.00,,,0.00,,2013-09-28 02:12:00,
2013-09-27 21:22:00,71.0,66.0,30.00,South,173,0.0,0.0,84,0.00,,,0.00,,2013-09-28 02:22:00,
2013-09-27 21:53:00,69.0,64.0,30.01,South,173,0.0,0.0,85,0.00,,,0.00,,2013-09-28 02:53:00,
2013-09-27 22:12:00,69.0,65.0,30.01,South,173,0.0,0.0,86,0.00,,,0.00,,2013-09-28 03:12:00,
2013-09-27 22:22:00,68.0,64.0,30.01,South,173,0.0,0.0,87,0.00,,,0.00,,2013-09-28 03:22:00,
2013-09-27 22:55:00,68.0,64.0,30.01,South,173,0.0,0.0,88,0.00,,,0.00,,2013-09-28 03:55:00,
2013-09-27 23:25:00,68.0,64.0,30.01,South,173,0.0,0.0,87,0.00,,,0.00,,2013-09-28 04:25:00,
2013-09-27 23:43:00,68.0,64.0,30.01,South,173,0.0,0.0,87,0.00,,,0.00,,2013-09-28 04:43:00,
2013-09-27 23:54:00,68.0,64.0,30.01,South,173,0.0,0.0,86,0.00,,,0.00,,2013-09-28 04:54:00,